DW5657 Weather Reports


Display with metric or nautical units.
time (UTC)temp
F
wind
direction
speed
MPH
gust
MPH
rain 1hr
in
rain 24hr
in
rain mn
in
humidity
%
barometer
mb
20260904203703 95 354 5.0 10.0 0.00 0.00 0.00 48 1013.0
20260904203204 97 356 1.0 6.0 0.00 0.00 0.00 50 1012.8
20260904202703 97 287 0.0 2.0 0.00 0.00 0.00 50 1012.4
20260904202203 96 306 1.0 3.0 0.00 0.00 0.00 51 1012.5
20260904201703 96 224 3.0 7.0 0.00 0.00 0.00 50 1012.4
20260904201204 96 209 2.0 6.0 0.00 0.00 0.00 51 1012.4
20260904200703 96 205 2.0 6.0 0.00 0.00 0.00 52 1012.4
20260904200203 96 223 1.0 5.0 0.00 0.00 0.00 51 1012.4
20260904195703 96 326 1.0 6.0 0.00 0.00 0.00 52 1012.5
20260904195204 96 248 1.0 6.0 0.00 0.00 0.00 51 1012.4
20260904194703 95 302 1.0 3.0 0.00 0.00 0.00 53 1012.5
20260904193703 96 240 3.0 8.0 0.00 0.00 0.00 51 1012.6
20260904193204 95 234 2.0 8.0 0.00 0.00 0.00 51 1012.5
20260904192703 95 6 1.0 3.0 0.00 0.00 0.00 51 1012.5
20260904191704 95 343 1.0 5.0 0.00 0.00 0.00 52 1012.5
20260904191203 95 298 1.0 5.0 0.00 0.00 0.00 51 1012.6
20260904190704 95 222 1.0 5.0 0.00 0.00 0.00 51 1012.7
20260904190203 95 242 2.0 5.0 0.00 0.00 0.00 52 1012.8
20260904185703 95 227 3.0 8.0 0.00 0.00 0.00 51 1012.9
20260904185204 95 309 3.0 7.0 0.00 0.00 0.00 52 1012.9
20260904184703 95 244 2.0 6.0 0.00 0.00 0.00 53 1013.0
20260904183704 95 257 3.0 6.0 0.00 0.00 0.00 52 1013.1
20260904182703 95 259 3.0 8.0 0.00 0.00 0.00 53 1013.3
20260904182203 95 235 2.0 5.0 0.00 0.00 0.00 52 1013.2
20260904181704 95 244 0.0 6.0 0.00 0.00 0.00 52 1013.4
20260904181204 95 240 2.0 6.0 0.00 0.00 0.00 52 1013.4
20260904175704 96 226 3.0 5.0 0.00 0.00 0.00 53 1013.7
20260904175203 96 210 2.0 3.0 0.00 0.00 0.00 52 1013.8
20260904174703 96 312 1.0 3.0 0.00 0.00 0.00 52 1013.9
20260904174203 96 231 0.0 3.0 0.00 0.00 0.00 53 1013.9
20260904173703 96 198 1.0 5.0 0.00 0.00 0.00 53 1014.0
20260904173203 96 307 3.0 9.0 0.00 0.00 0.00 52 1014.1
20260904172704 96 294 2.0 5.0 0.00 0.00 0.00 52 1014.2
20260904172203 95 229 2.0 7.0 0.00 0.00 0.00 52 1014.2
20260904171703 95 235 3.0 7.0 0.00 0.00 0.00 52 1014.2
20260904170704 95 229 3.0 12.0 0.00 0.00 0.00 54 1014.3
20260904170203 95 251 2.0 5.0 0.00 0.00 0.00 53 1014.3
20260904165203 95 240 3.0 9.0 0.00 0.00 0.00 54 1014.3
20260904164703 95 320 1.0 9.0 0.00 0.00 0.00 54 1014.3
20260904164204 95 255 2.0 9.0 0.00 0.00 0.00 54 1014.3
20260904163704 95 257 3.0 7.0 0.00 0.00 0.00 55 1014.4
20260904162703 95 251 2.0 7.0 0.00 0.00 0.00 56 1014.5
20260904162203 94 335 2.0 5.0 0.00 0.00 0.00 56 1014.4
20260904161204 94 272 1.0 2.0 0.00 0.00 0.00 58 1014.5
20260904160704 94 14 2.0 7.0 0.00 0.00 0.00 58 1014.5
20260904155203 94 313 1.0 5.0 0.00 0.00 0.00 59 1014.6
20260904154703 93 230 1.0 5.0 0.00 0.00 0.00 59 1014.6
20260904154205 93 286 1.0 2.0 0.00 0.00 0.00 59 1014.6
20260904153704 93 227 1.0 2.0 0.00 0.00 0.00 58 1014.6
20260904153203 92 209 1.0 7.0 0.00 0.00 0.00 60 1014.6
20260904152703 92 231 2.0 6.0 0.00 0.00 0.00 59 1014.5
20260904151703 92 209 1.0 3.0 0.00 0.00 0.00 60 1014.4
20260904151203 91 237 1.0 5.0 0.00 0.00 0.00 61 1014.4
20260904150204 90 242 1.0 5.0 0.00 0.00 0.00 63 1014.5
20260904145704 90 212 2.0 5.0 0.00 0.00 0.00 63 1014.4
20260904144703 89 233 2.0 5.0 0.00 0.00 0.00 63 1014.4
20260904144204 89 211 3.0 5.0 0.00 0.00 0.00 63 1014.4
20260904143704 89 208 2.0 6.0 0.00 0.00 0.00 64 1014.4
20260904143203 88 213 4.0 7.0 0.00 0.00 0.00 64 1014.4
20260904142704 88 242 1.0 5.0 0.00 0.00 0.00 66 1014.3
20260904142203 88 279 0.0 1.0 0.00 0.00 0.00 68 1014.3
20260904141703 87 280 1.0 6.0 0.00 0.00 0.00 68 1014.3
20260904141204 87 211 1.0 7.0 0.00 0.00 0.00 70 1014.3
20260904140703 87 235 1.0 3.0 0.00 0.00 0.00 70 1014.3
20260904140204 86 227 0.0 0.0 0.00 0.00 0.00 72 1014.3
20260904135203 86 235 0.0 0.0 0.00 0.00 0.00 72 1014.3
20260904134705 85 223 1.0 5.0 0.00 0.00 0.00 72 1014.4
20260904133704 85 249 1.0 3.0 0.00 0.00 0.00 73 1014.4
20260904133204 85 250 1.0 3.0 0.00 0.00 0.00 73 1014.5
20260904132704 84 227 1.0 3.0 0.00 0.00 0.00 74 1014.5
20260904132203 84 225 0.0 3.0 0.00 0.00 0.00 74 1014.6
20260904131703 83 238 1.0 3.0 0.00 0.00 0.00 75 1014.5
20260904131205 83 224 0.0 3.0 0.00 0.00 0.00 75 1014.5
20260904130703 83 224 1.0 5.0 0.00 0.00 0.00 75 1014.4
20260904130205 83 202 2.0 3.0 0.00 0.00 0.00 76 1014.3
20260904125704 82 225 0.0 5.0 0.00 0.00 0.00 77 1014.4
20260904125203 82 209 0.0 5.0 0.00 0.00 0.00 78 1014.4
20260904124703 81 196 1.0 3.0 0.00 0.00 0.00 78 1014.5
20260904124204 81 210 1.0 3.0 0.00 0.00 0.00 79 1014.5
20260904123703 81 235 0.0 2.0 0.00 0.00 0.00 80 1014.4
20260904122703 80 114 0.0 2.0 0.00 0.00 0.00 80 1014.4
20260904122203 80 100 0.0 0.0 0.00 0.00 0.00 81 1014.4
20260904121204 79 74 0.0 0.0 0.00 0.00 0.00 82 1014.3
20260904120703 79 71 0.0 0.0 0.00 0.00 0.00 82 1014.2
20260904120204 79 60 0.0 0.0 0.00 0.00 0.00 82 1014.1
20260904115703 79 58 0.0 0.0 0.00 0.00 0.00 83 1014.0
20260904115203 78 60 0.0 0.0 0.00 0.00 0.00 83 1014.0
20260904113704 78 44 0.0 0.0 0.00 0.00 0.00 83 1013.8
20260904113204 78 46 0.0 0.0 0.00 0.00 0.00 83 1013.8
20260904112705 78 45 0.0 0.0 0.00 0.00 0.00 84 1013.7
20260904111204 77 49 0.0 0.0 0.00 0.00 0.00 85 1013.5
20260904110703 77 63 0.0 0.0 0.00 0.00 0.00 85 1013.4
20260904110203 77 63 0.0 0.0 0.00 0.00 0.00 85 1013.3
20260904105703 77 64 0.0 0.0 0.00 0.00 0.00 85 1013.2
20260904105203 77 65 0.0 0.0 0.00 0.00 0.00 85 1013.1
20260904104703 77 69 0.0 0.0 0.00 0.00 0.00 85 1013.1
20260904104203 77 68 0.0 0.0 0.00 0.00 0.00 85 1013.1
20260904103703 78 69 0.0 0.0 0.00 0.00 0.00 85 1013.1
20260904103204 78 70 0.0 0.0 0.00 0.00 0.00 84 1013.1
20260904102703 78 68 0.0 0.0 0.00 0.00 0.00 84 1013.1
20260904102203 78 68 0.0 0.0 0.00 0.00 0.00 83 1013.1
20260904101704 78 65 0.0 0.0 0.00 0.00 0.00 83 1013.2
20260904101204 78 65 0.0 0.0 0.00 0.00 0.00 83 1013.2
20260904100704 78 68 0.0 0.0 0.00 0.00 0.00 83 1013.2
20260904100203 78 65 0.0 0.0 0.00 0.00 0.00 84 1013.2
20260904095704 78 66 0.0 0.0 0.00 0.00 0.00 84 1013.2
20260904095204 78 66 0.0 0.0 0.00 0.00 0.00 83 1013.1
20260904094704 78 66 0.0 0.0 0.00 0.00 0.00 83 1013.1
20260904094204 78 67 0.0 0.0 0.00 0.00 0.00 83 1013.1
20260904093703 78 69 0.0 0.0 0.00 0.00 0.00 83 1013.1
20260904093204 78 67 0.0 0.0 0.00 0.00 0.00 83 1013.0
20260904092704 79 68 0.0 0.0 0.00 0.00 0.00 83 1013.0
20260904092203 79 68 0.0 0.0 0.00 0.00 0.00 83 1013.1
20260904091704 79 67 0.0 0.0 0.00 0.00 0.00 83 1013.1
20260904091204 79 69 0.0 0.0 0.00 0.00 0.00 83 1013.1
20260904090703 79 68 0.0 0.0 0.00 0.00 0.00 83 1013.1
20260904090204 79 65 0.0 0.0 0.00 0.00 0.00 83 1013.1
20260904085703 79 61 0.0 0.0 0.00 0.00 0.00 83 1013.1
20260904085203 79 61 0.0 0.0 0.00 0.00 0.00 83 1013.1
20260904084205 79 61 0.0 0.0 0.00 0.00 0.00 82 1013.1
20260904083703 79 59 0.0 0.0 0.00 0.00 0.00 82 1013.1
20260904083204 79 59 0.0 0.0 0.00 0.00 0.00 83 1013.2
20260904082703 79 59 0.0 0.0 0.00 0.00 0.00 82 1013.2
20260904082204 79 58 0.0 0.0 0.00 0.00 0.00 82 1013.2
20260904081703 79 58 0.0 0.0 0.00 0.00 0.00 82 1013.2
20260904081204 79 57 0.0 0.0 0.00 0.00 0.00 83 1013.2
20260904080703 79 55 0.0 0.0 0.00 0.00 0.00 82 1013.2
20260904080204 79 54 0.0 0.0 0.00 0.00 0.00 83 1013.2
20260904075704 79 53 0.0 0.0 0.00 0.00 0.00 82 1013.1
20260904075205 79 54 0.0 0.0 0.00 0.00 0.00 82 1013.2
20260904074203 79 53 0.0 0.0 0.00 0.00 0.00 82 1013.3
20260904073703 79 60 0.0 0.0 0.00 0.00 0.00 82 1013.3
20260904072703 79 66 0.0 0.0 0.00 0.00 0.00 81 1013.3
20260904072204 80 69 0.0 0.0 0.00 0.00 0.00 80 1013.3
20260904071704 80 67 0.0 0.0 0.00 0.00 0.00 79 1013.3
20260904071204 80 66 0.0 0.0 0.00 0.00 0.00 79 1013.3
20260904070705 80 65 0.0 0.0 0.00 0.00 0.00 80 1013.4
20260904065703 80 65 0.0 0.0 0.00 0.00 0.00 79 1013.4
20260904064704 80 63 0.0 0.0 0.00 0.00 0.00 79 1013.5
20260904064203 80 63 0.0 0.0 0.00 0.00 0.00 79 1013.7
20260904063704 80 67 0.0 0.0 0.00 0.00 0.00 78 1013.6
20260904062703 81 65 0.0 0.0 0.00 0.00 0.00 77 1013.8
20260904061705 81 56 0.0 0.0 0.00 0.00 0.00 77 1013.8
20260904061205 82 55 0.0 0.0 0.00 0.00 0.00 76 1013.8
20260904060705 82 12 0.0 0.0 0.00 0.00 0.00 76 1013.9
20260904060203 82 61 0.0 0.0 0.00 0.00 0.00 76 1013.8
20260904055705 82 10 0.0 0.0 0.00 0.00 0.00 76 1013.8
20260904055203 82 12 0.0 0.0 0.00 0.00 0.00 75 1013.8
20260904054204 83 39 0.0 0.0 0.00 0.00 0.00 74 1013.8
20260904053703 83 23 0.0 0.0 0.00 0.00 0.00 74 1013.8
20260904052204 83 47 0.0 0.0 0.00 0.00 0.00 74 1013.8
20260904051704 83 44 0.0 0.0 0.00 0.00 0.00 74 1013.8
20260904051203 83 46 0.0 0.0 0.00 0.00 0.00 74 1013.8
20260904050704 83 46 0.0 0.0 0.00 0.00 0.00 74 1013.8
20260904050203 83 45 0.0 0.0 0.00 0.00 0.00 74 1013.7
20260904045704 83 45 0.0 0.0 0.00 0.00 0.00 74 1013.7
20260904044203 83 43 0.0 0.0 0.00 0.00 0.00 74 1013.7
20260904043207 83 42 0.0 0.0 0.00 0.00 0.00 73 1013.7
20260904042704 83 46 0.0 0.0 0.00 0.00 0.00 73 1013.7
20260904042204 83 44 0.0 0.0 0.00 0.00 0.00 73 1013.7
20260904041703 84 44 0.0 0.0 0.00 0.00 0.00 73 1013.7
20260904041204 84 45 0.0 0.0 0.00 0.00 0.00 73 1013.7
20260904040705 84 47 0.0 0.0 0.00 0.00 0.00 73 1013.7
20260904040203 84 49 0.0 0.0 0.00 0.00 0.00 73 1013.7
20260904035705 84 45 0.0 0.0 0.00 0.00 0.00 73 1013.6
20260904035203 84 43 0.0 0.0 0.00 0.00 0.00 73 1013.6
20260904034703 84 44 0.0 0.0 0.00 0.00 0.00 73 1013.5
20260904033704 84 42 0.0 0.0 0.00 0.00 0.00 73 1013.5
20260904033204 84 46 0.0 0.0 0.00 0.00 0.00 72 1013.6
20260904032704 84 47 0.0 0.0 0.00 0.00 0.00 72 1013.7
20260904032204 84 49 0.0 0.0 0.00 0.00 0.00 72 1013.7
20260904031704 84 49 0.0 0.0 0.00 0.00 0.00 71 1013.6
20260904030704 84 46 0.0 0.0 0.00 0.00 0.00 71 1013.6
20260904025203 85 52 0.0 0.0 0.00 0.00 0.00 70 1013.8
20260904024703 85 50 0.0 0.0 0.00 0.00 0.00 70 1013.8
20260904024203 85 51 0.0 0.0 0.00 0.00 0.00 70 1013.8
20260904023203 85 51 0.0 0.0 0.00 0.00 0.00 69 1013.8
20260904022704 85 51 0.0 0.0 0.00 0.00 0.00 69 1013.8
20260904022204 85 55 0.0 0.0 0.00 0.00 0.00 70 1013.7
20260904021705 85 55 0.0 0.0 0.00 0.00 0.00 70 1013.7
20260904020704 86 54 0.0 0.0 0.00 0.00 0.00 69 1013.6
20260904020203 86 45 0.0 0.0 0.00 0.00 0.00 69 1013.7
20260904015703 86 54 0.0 0.0 0.00 0.00 0.00 68 1013.8
20260904015204 86 57 0.0 0.0 0.00 0.00 0.00 68 1013.8
20260904014705 86 56 0.0 0.0 0.00 0.00 0.00 68 1013.8
20260904013704 87 72 0.0 0.0 0.00 0.00 0.00 67 1013.9
20260904013203 87 71 0.0 0.0 0.00 0.00 0.00 67 1013.9
20260904012704 87 59 0.0 0.0 0.00 0.00 0.00 67 1013.8
20260904012203 87 40 0.0 0.0 0.00 0.00 0.00 66 1013.8
20260904011704 87 64 0.0 0.0 0.00 0.00 0.00 66 1013.8
20260904011203 88 47 0.0 0.0 0.00 0.00 0.00 65 1013.8
20260904010703 88 57 0.0 0.0 0.00 0.00 0.00 65 1013.8
20260904010204 88 48 0.0 0.0 0.00 0.00 0.00 65 1013.7
20260904005705 88 71 0.0 0.0 0.00 0.00 0.00 64 1013.7
20260904005203 89 74 0.0 0.0 0.00 0.00 0.00 64 1013.6
20260904004704 89 78 0.0 0.0 0.00 0.00 0.00 63 1013.6
20260904004203 89 67 0.0 0.0 0.00 0.00 0.00 63 1013.5
20260904003703 89 61 0.0 0.0 0.00 0.00 0.00 62 1013.4
20260904003203 90 135 0.0 0.0 0.00 0.00 0.00 62 1013.3
20260904002203 90 160 0.0 0.0 0.00 0.00 0.00 61 1013.2
20260904001704 90 163 0.0 0.0 0.00 0.00 0.00 60 1013.2
20260904001203 91 170 0.0 0.0 0.00 0.00 0.00 60 1013.3
20260904000704 91 306 0.0 0.0 0.00 0.00 0.00 59 1013.3
20260904000205 91 306 0.0 0.0 0.00 0.00 0.00 59 1013.3
20260903235704 91 306 0.0 0.0 0.00 0.00 0.00 59 1013.2
20260903234703 92 337 0.0 0.0 0.00 0.00 0.00 58 1013.2
20260903234203 92 233 0.0 0.0 0.00 0.00 0.00 58 1013.1
20260903233704 92 217 0.0 0.0 0.00 0.00 0.00 58 1013.1
20260903233203 92 195 0.0 0.0 0.00 0.00 0.00 58 1013.0
20260903231704 93 223 0.0 0.0 0.00 0.00 0.00 57 1012.9
20260903231203 93 223 0.0 0.0 0.00 0.00 0.00 57 1012.9
20260903225704 93 221 0.0 1.0 0.00 0.00 0.00 55 1012.9
20260903225203 94 232 0.0 3.0 0.00 0.00 0.00 56 1013.0
20260903224703 94 226 1.0 3.0 0.00 0.00 0.00 55 1013.0
20260903224205 94 291 0.0 6.0 0.00 0.00 0.00 55 1012.9
20260903223204 94 236 0.0 3.0 0.00 0.00 0.00 54 1012.8
20260903222703 94 227 2.0 5.0 0.00 0.00 0.00 53 1012.8
20260903222203 94 227 2.0 5.0 0.00 0.00 0.00 53 1012.8
20260903221703 95 225 1.0 3.0 0.00 0.00 0.00 53 1012.7
20260903221204 95 208 1.0 3.0 0.00 0.00 0.00 52 1012.6
20260903220704 96 214 2.0 6.0 0.00 0.00 0.00 51 1012.6
20260903220204 96 212 3.0 6.0 0.00 0.00 0.00 51 1012.4
20260903215703 96 211 2.0 7.0 0.00 0.00 0.00 51 1012.4
20260903215204 96 221 3.0 8.0 0.00 0.00 0.00 50 1012.3
20260903214704 96 270 3.0 7.0 0.00 0.00 0.00 50 1012.3
20260903214204 96 228 5.0 9.0 0.00 0.00 0.00 50 1012.2
20260903213204 96 225 3.0 8.0 0.00 0.00 0.00 50 1012.2
20260903212703 96 291 3.0 6.0 0.00 0.00 0.00 50 1012.3
20260903212204 96 263 1.0 3.0 0.00 0.00 0.00 51 1012.4
20260903211704 96 253 2.0 6.0 0.00 0.00 0.00 51 1012.4
20260903211203 95 233 3.0 6.0 0.00 0.00 0.00 51 1012.4
20260903210704 95 233 2.0 7.0 0.00 0.00 0.00 51 1012.4
20260903210204 95 275 2.0 7.0 0.00 0.00 0.00 51 1012.4
20260903205704 95 279 3.0 6.0 0.00 0.00 0.00 51 1012.4
20260903205203 96 222 4.0 6.0 0.00 0.00 0.00 51 1012.4
20260903204703 96 204 2.0 6.0 0.00 0.00 0.00 51 1012.5
20260903204203 96 232 4.0 8.0 0.00 0.00 0.00 50 1012.7